OEO2499 KORD-KDCA

Flight info

Callsign OEO2499
Flight time 1h 18m
Altitude 37000
Route MOBLE ADIME OTENS ANEWA JERRI NUSMM BUCKO FRDMM6
Aircraft A320/M-SDE3FGHIRWY/LB1

Departure

Time 2026-05-07 19:42
Airport Chicago O'Hare International Airport (KORD)

Arrival

Time 2026-05-07 21:00
Airport Ronald Reagan Washington National Airport (KDCA)
Time Latitude Longitude Altitude Speed Heading
2026-05-07 19:08 41.97409 -87.90095 669 ft 0 kts 90°
2026-05-07 19:31 41.97409 -87.90111 669 ft 3 kts 90°
2026-05-07 19:31 41.97410 -87.90139 668 ft 4 kts 119°
2026-05-07 19:31 41.97428 -87.90159 665 ft 4 kts 172°
2026-05-07 19:31 41.97453 -87.90160 668 ft 3 kts 180°
2026-05-07 19:32 41.97457 -87.90160 667 ft 0 kts 180°
2026-05-07 19:36 41.97456 -87.90160 669 ft 1 kts 180°
2026-05-07 19:36 41.97417 -87.90160 669 ft 10 kts 180°
2026-05-07 19:36 41.97329 -87.90161 669 ft 14 kts 180°
2026-05-07 19:37 41.97233 -87.90160 669 ft 13 kts 178°
2026-05-07 19:37 41.97204 -87.90058 669 ft 15 kts 89°
2026-05-07 19:37 41.97207 -87.89908 669 ft 17 kts 84°
2026-05-07 19:37 41.97262 -87.89756 669 ft 19 kts 63°
2026-05-07 19:38 41.97306 -87.89622 669 ft 10 kts 96°
2026-05-07 19:38 41.97236 -87.89552 669 ft 16 kts 148°
2026-05-07 19:38 41.97195 -87.89406 669 ft 20 kts 89°
2026-05-07 19:38 41.97194 -87.89206 669 ft 22 kts 90°
2026-05-07 19:39 41.97195 -87.88988 669 ft 24 kts 90°
2026-05-07 19:39 41.97195 -87.88748 669 ft 27 kts 88°
2026-05-07 19:39 41.97195 -87.88491 669 ft 28 kts 91°
2026-05-07 19:39 41.97195 -87.88245 669 ft 25 kts 90°
2026-05-07 19:40 41.97179 -87.88046 668 ft 15 kts 134°
2026-05-07 19:40 41.97079 -87.88037 670 ft 15 kts 185°
2026-05-07 19:40 41.96974 -87.88033 672 ft 16 kts 178°
2026-05-07 19:40 41.96882 -87.88109 671 ft 6 kts 223°
2026-05-07 19:41 41.96881 -87.88110 671 ft 0 kts 223°
2026-05-07 19:41 41.96839 -87.88160 670 ft 32 kts 221°
2026-05-07 19:41 41.96507 -87.88552 669 ft 92 kts 221°
2026-05-07 19:42 41.95900 -87.89267 673 ft 138 kts 221°
2026-05-07 19:42 41.95168 -87.90128 1225 ft 136 kts 221°
2026-05-07 19:42 41.94445 -87.90971 1844 ft 142 kts 223°
2026-05-07 19:42 41.93615 -87.91864 2191 ft 164 kts 213°
2026-05-07 19:43 41.92438 -87.92148 2573 ft 191 kts 175°
2026-05-07 19:43 41.91143 -87.91285 2879 ft 231 kts 142°
2026-05-07 19:43 41.90235 -87.89340 3294 ft 266 kts 110°
2026-05-07 19:43 41.89861 -87.86801 3915 ft 285 kts 101°
2026-05-07 19:44 41.89581 -87.84146 4689 ft 290 kts 100°
2026-05-07 19:44 41.89302 -87.81476 4937 ft 289 kts 100°
2026-05-07 19:44 41.89017 -87.78805 4988 ft 288 kts 100°
2026-05-07 19:44 41.88725 -87.76153 5023 ft 288 kts 100°
2026-05-07 19:45 41.88448 -87.73502 5001 ft 288 kts 100°
2026-05-07 19:45 41.88197 -87.70863 4991 ft 288 kts 99°
2026-05-07 19:45 41.87955 -87.68201 5015 ft 286 kts 100°
2026-05-07 19:45 41.87664 -87.65561 5049 ft 286 kts 102°
2026-05-07 19:46 41.87313 -87.62936 5092 ft 285 kts 103°
2026-05-07 19:46 41.87017 -87.60305 5040 ft 286 kts 94°
2026-05-07 19:46 41.87266 -87.57622 5525 ft 293 kts 79°
2026-05-07 19:46 41.87661 -87.54940 6549 ft 294 kts 79°
2026-05-07 19:47 41.88045 -87.52225 7419 ft 299 kts 79°
2026-05-07 19:47 41.88432 -87.49462 8228 ft 304 kts 79°
2026-05-07 19:47 41.88827 -87.46653 9023 ft 309 kts 78°
2026-05-07 19:47 41.89233 -87.43794 9799 ft 315 kts 78°
2026-05-07 19:48 41.89650 -87.40866 10330 ft 329 kts 78°
2026-05-07 19:48 41.90096 -87.37747 10577 ft 351 kts 78°
2026-05-07 19:48 41.90563 -87.34479 11087 ft 361 kts 77°
2026-05-07 19:48 41.91040 -87.31143 11723 ft 367 kts 77°
2026-05-07 19:49 41.91526 -87.27752 12352 ft 373 kts 77°
2026-05-07 19:49 41.92020 -87.24305 13003 ft 378 kts 77°
2026-05-07 19:49 41.92519 -87.20809 13664 ft 384 kts 77°
2026-05-07 19:49 41.93021 -87.17267 14257 ft 388 kts 77°
2026-05-07 19:50 41.93524 -87.13682 14853 ft 393 kts 77°
2026-05-07 19:50 41.94033 -87.10058 15440 ft 397 kts 77°
2026-05-07 19:50 41.94498 -87.06383 16020 ft 402 kts 83°
2026-05-07 19:50 41.94626 -87.02613 16604 ft 406 kts 89°
2026-05-07 19:51 41.94681 -86.98801 17195 ft 410 kts 89°
2026-05-07 19:51 41.94734 -86.94952 17833 ft 414 kts 88°
2026-05-07 19:51 41.94788 -86.91073 18372 ft 419 kts 88°
2026-05-07 19:51 41.94846 -86.87133 18874 ft 424 kts 88°
2026-05-07 19:52 41.94907 -86.83157 19428 ft 427 kts 88°
2026-05-07 19:52 41.94968 -86.79153 20010 ft 430 kts 88°
2026-05-07 19:52 41.95026 -86.75122 20587 ft 433 kts 88°
2026-05-07 19:52 41.95081 -86.71064 21148 ft 436 kts 87°
2026-05-07 19:53 41.95134 -86.66979 21703 ft 439 kts 87°
2026-05-07 19:53 41.95185 -86.62865 22245 ft 442 kts 87°
2026-05-07 19:53 41.95237 -86.58724 22787 ft 445 kts 87°
2026-05-07 19:53 41.95286 -86.54610 23332 ft 448 kts 87°
2026-05-07 19:54 41.95335 -86.50399 23758 ft 453 kts 87°
2026-05-07 19:54 41.95386 -86.46148 24141 ft 457 kts 87°
2026-05-07 19:54 41.95434 -86.41853 24506 ft 462 kts 87°
2026-05-07 19:54 41.95480 -86.37515 24860 ft 467 kts 87°
2026-05-07 19:55 41.95527 -86.33138 25204 ft 472 kts 87°
2026-05-07 19:55 41.95572 -86.28712 25549 ft 476 kts 87°
2026-05-07 19:55 41.95588 -86.24242 25880 ft 481 kts 91°
2026-05-07 19:55 41.95235 -86.19749 26205 ft 486 kts 101°
2026-05-07 19:56 41.94444 -86.15316 26558 ft 490 kts 106°
2026-05-07 19:56 41.93564 -86.10879 26914 ft 493 kts 106°
2026-05-07 19:56 41.92680 -86.06409 27244 ft 497 kts 106°
2026-05-07 19:56 41.91791 -86.01914 27510 ft 501 kts 106°
2026-05-07 19:57 41.90891 -85.97357 27685 ft 509 kts 107°
2026-05-07 19:57 41.89976 -85.92733 27924 ft 515 kts 107°
2026-05-07 19:57 41.89053 -85.88069 28236 ft 519 kts 107°
2026-05-07 19:57 41.88121 -85.83370 28549 ft 523 kts 107°
2026-05-07 19:58 41.87180 -85.78637 28858 ft 527 kts 107°
2026-05-07 19:58 41.86230 -85.73871 29159 ft 531 kts 107°
2026-05-07 19:58 41.85269 -85.69070 29463 ft 535 kts 107°
2026-05-07 19:58 41.84297 -85.64238 29768 ft 539 kts 107°
2026-05-07 19:59 41.83317 -85.59372 30063 ft 542 kts 107°
2026-05-07 19:59 41.82332 -85.54484 30322 ft 546 kts 107°
2026-05-07 19:59 41.81338 -85.49565 30613 ft 548 kts 107°
2026-05-07 19:59 41.80337 -85.44629 30925 ft 549 kts 107°
2026-05-07 20:00 41.79351 -85.39765 31335 ft 547 kts 108°
2026-05-07 20:00 41.78354 -85.34857 31789 ft 545 kts 108°
2026-05-07 20:00 41.77357 -85.29970 32251 ft 543 kts 108°
2026-05-07 20:00 41.76361 -85.25115 32712 ft 541 kts 108°
2026-05-07 20:01 41.75366 -85.20270 33177 ft 539 kts 108°
2026-05-07 20:01 41.74375 -85.15445 33663 ft 536 kts 108°
2026-05-07 20:01 41.73385 -85.10639 34111 ft 534 kts 108°
2026-05-07 20:01 41.72398 -85.05854 34489 ft 533 kts 108°
2026-05-07 20:02 41.71408 -85.01081 34835 ft 532 kts 109°
2026-05-07 20:02 41.70415 -84.96313 35135 ft 532 kts 109°
2026-05-07 20:02 41.69417 -84.91545 35430 ft 532 kts 109°
2026-05-07 20:02 41.68417 -84.86783 35728 ft 531 kts 109°
2026-05-07 20:03 41.67422 -84.82025 36019 ft 531 kts 108°
2026-05-07 20:03 41.66683 -84.77181 36305 ft 534 kts 98°
2026-05-07 20:03 41.66406 -84.72225 36571 ft 535 kts 94°
2026-05-07 20:03 41.66214 -84.67254 36835 ft 535 kts 94°
2026-05-07 20:04 41.66006 -84.62289 36979 ft 537 kts 94°
2026-05-07 20:04 41.65785 -84.57283 36995 ft 539 kts 95°
2026-05-07 20:04 41.65330 -84.47355 36994 ft 539 kts 95°
2026-05-07 20:05 41.64870 -84.37352 36993 ft 539 kts 95°
2026-05-07 20:05 41.64416 -84.27280 36978 ft 539 kts 94°
2026-05-07 20:06 41.63966 -84.17348 36992 ft 540 kts 95°
2026-05-07 20:06 41.63496 -84.07326 36996 ft 540 kts 95°
2026-05-07 20:07 41.63014 -83.97307 37000 ft 540 kts 95°
2026-05-07 20:07 41.62523 -83.87280 36996 ft 540 kts 95°
2026-05-07 20:08 41.62024 -83.77274 37005 ft 540 kts 95°
2026-05-07 20:08 41.61519 -83.67265 37007 ft 540 kts 95°
2026-05-07 20:09 41.60462 -83.57392 37017 ft 534 kts 110°
2026-05-07 20:10 41.57266 -83.43148 36957 ft 534 kts 111°
2026-05-07 20:10 41.55142 -83.33636 36968 ft 536 kts 110°
2026-05-07 20:11 41.53002 -83.24098 36974 ft 536 kts 111°
2026-05-07 20:11 41.50837 -83.14580 36971 ft 537 kts 111°
2026-05-07 20:12 41.48662 -83.05053 36989 ft 536 kts 111°
2026-05-07 20:12 41.46495 -82.95542 36999 ft 536 kts 111°
2026-05-07 20:13 41.44320 -82.86032 36993 ft 536 kts 111°
2026-05-07 20:13 41.42136 -82.76532 36961 ft 536 kts 111°
2026-05-07 20:14 41.39907 -82.67061 36985 ft 534 kts 116°
2026-05-07 20:14 41.36562 -82.58518 36992 ft 517 kts 134°
2026-05-07 20:15 41.31881 -82.51490 36960 ft 504 kts 144°
2026-05-07 20:15 41.26958 -82.44835 36965 ft 505 kts 144°
2026-05-07 20:16 41.21997 -82.38116 36966 ft 506 kts 144°
2026-05-07 20:16 41.17108 -82.31476 36989 ft 507 kts 144°
2026-05-07 20:17 41.12173 -82.24803 36999 ft 506 kts 144°
2026-05-07 20:17 41.07229 -82.18153 36931 ft 506 kts 144°
2026-05-07 20:18 41.03075 -82.12583 36959 ft 508 kts 144°
2026-05-07 20:18 40.98149 -82.05967 36967 ft 509 kts 144°
2026-05-07 20:19 40.93172 -81.99303 36972 ft 509 kts 144°
2026-05-07 20:19 40.88184 -81.92649 36977 ft 509 kts 144°
2026-05-07 20:20 40.83187 -81.86007 36945 ft 510 kts 145°
2026-05-07 20:20 40.78190 -81.79369 36953 ft 510 kts 145°
2026-05-07 20:21 40.73175 -81.72732 36981 ft 511 kts 145°
2026-05-07 20:21 40.68152 -81.66097 36985 ft 511 kts 145°
2026-05-07 20:22 40.63128 -81.59463 36974 ft 511 kts 145°
2026-05-07 20:22 40.58101 -81.52838 36930 ft 511 kts 145°
2026-05-07 20:23 40.53070 -81.46215 36952 ft 512 kts 145°
2026-05-07 20:23 40.48027 -81.39605 36966 ft 512 kts 145°
2026-05-07 20:24 40.42979 -81.33018 36975 ft 512 kts 145°
2026-05-07 20:24 40.37927 -81.26423 36968 ft 512 kts 145°
2026-05-07 20:25 40.32881 -81.19839 36983 ft 511 kts 145°
2026-05-07 20:25 40.27834 -81.13279 36985 ft 511 kts 146°
2026-05-07 20:26 40.22782 -81.06745 36989 ft 510 kts 146°
2026-05-07 20:26 40.17731 -81.00225 36974 ft 510 kts 146°
2026-05-07 20:27 40.12682 -80.93714 36977 ft 510 kts 146°
2026-05-07 20:27 40.07635 -80.87220 36925 ft 510 kts 146°
2026-05-07 20:28 40.02616 -80.80766 36951 ft 510 kts 146°
2026-05-07 20:28 39.97638 -80.74107 36957 ft 513 kts 144°
2026-05-07 20:29 39.92744 -80.67329 36960 ft 514 kts 143°
2026-05-07 20:29 39.87833 -80.60572 36957 ft 513 kts 144°
2026-05-07 20:30 39.82887 -80.53884 36926 ft 512 kts 144°
2026-05-07 20:30 39.77923 -80.47228 36938 ft 513 kts 144°
2026-05-07 20:31 39.72957 -80.40572 36909 ft 515 kts 144°
2026-05-07 20:31 39.70460 -80.37219 36648 ft 516 kts 144°
2026-05-07 20:31 39.67968 -80.33870 36401 ft 515 kts 144°
2026-05-07 20:31 39.65484 -80.30528 36157 ft 513 kts 144°
2026-05-07 20:32 39.63018 -80.27207 35915 ft 511 kts 144°
2026-05-07 20:32 39.60554 -80.23901 35615 ft 509 kts 145°
2026-05-07 20:32 39.58096 -80.20611 35376 ft 507 kts 145°
2026-05-07 20:32 39.55645 -80.17338 35140 ft 505 kts 145°
2026-05-07 20:33 39.53233 -80.14124 34899 ft 503 kts 145°
2026-05-07 20:33 39.50794 -80.10882 34664 ft 502 kts 145°
2026-05-07 20:33 39.48331 -80.07607 34431 ft 500 kts 146°
2026-05-07 20:33 39.45913 -80.04392 34199 ft 499 kts 146°
2026-05-07 20:34 39.43523 -80.01219 33974 ft 497 kts 146°
2026-05-07 20:34 39.41118 -79.98025 33570 ft 494 kts 146°
2026-05-07 20:34 39.38719 -79.94843 33002 ft 493 kts 145°
2026-05-07 20:34 39.36323 -79.91666 32396 ft 492 kts 145°
2026-05-07 20:35 39.33945 -79.88510 31923 ft 490 kts 144°
2026-05-07 20:35 39.31777 -79.85047 31371 ft 503 kts 131°
2026-05-07 20:35 39.30108 -79.81032 30985 ft 511 kts 118°
2026-05-07 20:35 39.29057 -79.76665 30824 ft 509 kts 105°
2026-05-07 20:36 39.28577 -79.72148 30662 ft 508 kts 98°
2026-05-07 20:36 39.28216 -79.67630 30421 ft 504 kts 98°
2026-05-07 20:36 39.27855 -79.63141 30183 ft 501 kts 98°
2026-05-07 20:36 39.27495 -79.58680 29946 ft 498 kts 98°
2026-05-07 20:37 39.27137 -79.54242 29650 ft 496 kts 98°
2026-05-07 20:37 39.26783 -79.49829 29370 ft 493 kts 98°
2026-05-07 20:37 39.26430 -79.45443 29095 ft 490 kts 98°
2026-05-07 20:37 39.26078 -79.41093 28804 ft 487 kts 98°
2026-05-07 20:38 39.25724 -79.36754 28533 ft 485 kts 99°
2026-05-07 20:38 39.25369 -79.32444 28263 ft 482 kts 99°
2026-05-07 20:38 39.25011 -79.28157 27997 ft 479 kts 99°
2026-05-07 20:38 39.24654 -79.23894 27714 ft 477 kts 99°
2026-05-07 20:39 39.24301 -79.19654 27406 ft 475 kts 99°
2026-05-07 20:39 39.23945 -79.15414 26963 ft 474 kts 99°
2026-05-07 20:39 39.23589 -79.11212 26608 ft 468 kts 99°
2026-05-07 20:39 39.23235 -79.07071 25883 ft 462 kts 99°
2026-05-07 20:40 39.22882 -79.02987 25283 ft 455 kts 99°
2026-05-07 20:40 39.22532 -78.98942 24801 ft 455 kts 99°
2026-05-07 20:40 39.22181 -78.94915 24357 ft 451 kts 99°
2026-05-07 20:40 39.21814 -78.90930 23917 ft 444 kts 100°
2026-05-07 20:41 39.21435 -78.87010 23365 ft 438 kts 100°
2026-05-07 20:41 39.21059 -78.83189 22746 ft 434 kts 100°
2026-05-07 20:41 39.20677 -78.79352 22348 ft 431 kts 100°
2026-05-07 20:41 39.20295 -78.75534 21859 ft 426 kts 100°
2026-05-07 20:42 39.19922 -78.71775 21312 ft 420 kts 100°
2026-05-07 20:42 39.19554 -78.68038 20833 ft 420 kts 100°
2026-05-07 20:42 39.19186 -78.64311 20474 ft 417 kts 100°
2026-05-07 20:42 39.18820 -78.60603 19968 ft 418 kts 101°
2026-05-07 20:43 39.18457 -78.56922 19581 ft 410 kts 101°
2026-05-07 20:43 39.18102 -78.53305 18977 ft 405 kts 101°
2026-05-07 20:43 39.17745 -78.49718 18530 ft 402 kts 101°
2026-05-07 20:43 39.17387 -78.46160 18187 ft 401 kts 101°
2026-05-07 20:44 39.17025 -78.42593 17704 ft 401 kts 101°
2026-05-07 20:44 39.16665 -78.39049 17394 ft 397 kts 101°
2026-05-07 20:44 39.16149 -78.35575 16919 ft 390 kts 111°
2026-05-07 20:44 39.15346 -78.32276 16501 ft 383 kts 113°
2026-05-07 20:45 39.14544 -78.29034 16141 ft 377 kts 113°
2026-05-07 20:45 39.13751 -78.25826 15819 ft 375 kts 113°
2026-05-07 20:45 39.12962 -78.22642 15483 ft 372 kts 114°
2026-05-07 20:45 39.12178 -78.19484 15150 ft 369 kts 113°
2026-05-07 20:46 39.11395 -78.16349 14824 ft 366 kts 114°
2026-05-07 20:46 39.10617 -78.13236 14493 ft 364 kts 114°
2026-05-07 20:46 39.09854 -78.10185 14181 ft 361 kts 114°
2026-05-07 20:46 39.09068 -78.07079 13852 ft 358 kts 114°
2026-05-07 20:47 39.08292 -78.04050 13521 ft 356 kts 114°
2026-05-07 20:47 39.07517 -78.01036 13186 ft 352 kts 114°
2026-05-07 20:47 39.06753 -77.98059 12877 ft 349 kts 114°
2026-05-07 20:47 39.06007 -77.95145 12565 ft 346 kts 114°
2026-05-07 20:48 39.05255 -77.92216 12273 ft 344 kts 113°
2026-05-07 20:48 39.04506 -77.89312 11972 ft 341 kts 113°
2026-05-07 20:48 39.03762 -77.86419 11671 ft 339 kts 112°
2026-05-07 20:48 39.03025 -77.83549 11372 ft 336 kts 112°
2026-05-07 20:49 39.02293 -77.80706 11086 ft 333 kts 112°
2026-05-07 20:49 39.01564 -77.77891 10793 ft 331 kts 111°
2026-05-07 20:49 39.00838 -77.75092 10500 ft 329 kts 111°
2026-05-07 20:49 39.00118 -77.72315 10209 ft 326 kts 111°
2026-05-07 20:50 38.99402 -77.69555 9917 ft 324 kts 110°
2026-05-07 20:50 38.98694 -77.66817 9612 ft 322 kts 110°
2026-05-07 20:50 38.97985 -77.64117 9313 ft 319 kts 111°
2026-05-07 20:50 38.97230 -77.61451 9024 ft 316 kts 112°
2026-05-07 20:51 38.96451 -77.58830 8740 ft 313 kts 113°
2026-05-07 20:51 38.95663 -77.56224 8463 ft 314 kts 113°
2026-05-07 20:51 38.95020 -77.53577 8240 ft 309 kts 100°
2026-05-07 20:51 38.94935 -77.50869 7890 ft 301 kts 82°
2026-05-07 20:52 38.95421 -77.48304 7471 ft 290 kts 64°
2026-05-07 20:52 38.96202 -77.46029 7210 ft 275 kts 63°
2026-05-07 20:52 38.96965 -77.43769 6703 ft 274 kts 64°
2026-05-07 20:52 38.97701 -77.41555 6316 ft 266 kts 64°
2026-05-07 20:53 38.98412 -77.39403 5940 ft 258 kts 64°
2026-05-07 20:53 38.99102 -77.37319 5587 ft 249 kts 64°
2026-05-07 20:53 38.99767 -77.35316 5259 ft 240 kts 64°
2026-05-07 20:53 39.00414 -77.33374 4930 ft 232 kts 64°
2026-05-07 20:54 39.01036 -77.31510 4604 ft 223 kts 63°
2026-05-07 20:54 39.01637 -77.29720 4288 ft 214 kts 64°
2026-05-07 20:54 39.02215 -77.27997 3987 ft 206 kts 64°
2026-05-07 20:54 39.02605 -77.26267 3740 ft 198 kts 80°
2026-05-07 20:55 39.02585 -77.24547 3437 ft 195 kts 97°
2026-05-07 20:55 39.02177 -77.22885 3167 ft 195 kts 115°
2026-05-07 20:55 39.01442 -77.21467 3113 ft 189 kts 131°
2026-05-07 20:55 39.00505 -77.20300 3057 ft 187 kts 137°
2026-05-07 20:56 38.99564 -77.19159 2983 ft 185 kts 136°
2026-05-07 20:56 38.98641 -77.18016 2895 ft 183 kts 136°
2026-05-07 20:56 38.97787 -77.16860 2743 ft 174 kts 131°
2026-05-07 20:56 38.96980 -77.15710 2681 ft 170 kts 135°
2026-05-07 20:57 38.96106 -77.14695 2501 ft 168 kts 140°
2026-05-07 20:57 38.95248 -77.13744 2251 ft 156 kts 140°
2026-05-07 20:57 38.94438 -77.12908 2074 ft 144 kts 144°
2026-05-07 20:57 38.93607 -77.12192 1984 ft 143 kts 150°
2026-05-07 20:58 38.92743 -77.11549 1867 ft 145 kts 150°
2026-05-07 20:58 38.91909 -77.10804 1719 ft 148 kts 140°
2026-05-07 20:58 38.91182 -77.09874 1503 ft 149 kts 129°
2026-05-07 20:58 38.90635 -77.08730 1319 ft 153 kts 111°
2026-05-07 20:59 38.90286 -77.07416 999 ft 158 kts 110°
2026-05-07 20:59 38.89753 -77.06245 847 ft 145 kts 136°
2026-05-07 20:59 38.88991 -77.05473 624 ft 137 kts 146°
2026-05-07 20:59 38.88251 -77.04739 453 ft 132 kts 147°
2026-05-07 21:00 38.87460 -77.04155 314 ft 129 kts 159°
2026-05-07 21:00 38.86584 -77.03915 159 ft 130 kts 175°
2026-05-07 21:00 38.85688 -77.03828 27 ft 121 kts 176°
2026-05-07 21:00 38.85061 -77.03769 24 ft 49 kts 175°
2026-05-07 21:01 38.84913 -77.03772 23 ft 19 kts 202°
2026-05-07 21:01 38.84878 -77.03845 23 ft 2 kts 270°
2026-05-07 21:01 38.84887 -77.03888 25 ft 9 kts 308°
2026-05-07 21:01 38.84952 -77.03896 24 ft 2 kts 359°
2026-05-07 21:02 38.84974 -77.03898 24 ft 6 kts 355°
2026-05-07 21:02 38.85033 -77.03904 24 ft 11 kts 355°
2026-05-07 21:03 38.85116 -77.03913 24 ft 11 kts 355°
2026-05-07 21:03 38.85166 -77.03976 24 ft 9 kts 324°
2026-05-07 21:03 38.85238 -77.03985 24 ft 12 kts 355°
2026-05-07 21:03 38.85312 -77.03992 24 ft 9 kts 351°
2026-05-07 21:04 38.85332 -77.04049 24 ft 9 kts 254°
2026-05-07 21:04 38.85317 -77.04100 24 ft 0 kts 250°
2026-05-07 21:04 38.85313 -77.04116 24 ft 5 kts 252°
2026-05-07 21:04 38.85325 -77.04145 24 ft 5 kts 340°
2026-05-07 21:05 38.85347 -77.04148 24 ft 4 kts 350°
2026-05-07 21:05 38.85361 -77.04152 24 ft 0 kts 349°